Blacksburg, VA

10:53 PM EDT on April 24, 2017 (GMT -0400)
Virginia Tech

Weather History for KBCB - February, 2014

Change the Weather History Date:

Sunday, February 9, 2014

  Actual Average Record
Temperature  
Mean Temperature 36 °F 33 °F  
Max Temperature 40 °F 44 °F 65 °F (1965)
Min Temperature 31 °F 23 °F 4 °F (1967)
Degree Days  
Heating Degree Days 29 32  
Month to date heating degree days 267 291  
Since 1 July heating degree days 3571 3478  
Cooling Degree Days 0 0  
Month to date cooling degree days 0 0  
Year to date cooling degree days 0 0  
Moisture  
Dew Point 34 °F    
Average Humidity 90    
Maximum Humidity 100    
Minimum Humidity 79    
Precipitation  
Precipitation T in 0.11 in 1.13 in (1957)
Month to date precipitation 1.50 0.90  
Year to date precipitation 3.15 3.98  
Snow  
Snow 0.00 in - - ()
Month to date snowfall 0.4  
Since 1 July snowfall 7.0  
Snow Depth 0.00 in    
Sea Level Pressure  
Sea Level Pressure 30.05 in    
Wind  
Wind Speed 5 mph (WSW)    
Max Wind Speed 12 mph    
Max Gust Speed 21 mph    
Visibility 10 miles    
Events      
T = Trace of Precipitation, MM = Missing Value Source: NWS Daily Summary

Daily Weather History Graph

Daily Weather History Graph

Search for Another Location

Airport or City:

Trip Planner

Search our weather history database for the weather conditions in past years. The results will help you decide how hot, cold, wet, or windy it might be!

Date:

Astronomy

Feb. 09, 2014 Rise Set
Actual Time 7:17 AM EST 5:55 PM EST
Civil Twilight 6:50 AM EST 6:22 PM EST
Nautical Twilight 6:19 AM EST 6:52 PM EST
Astronomical Twilight 5:49 AM EST 7:23 PM EST
Moon 1:36 PM EST (2/9) 3:18 AM EST (2/9)
Length of Visible Light 11h 31m
Length of Day
10h 38m
Waxing Gibbous, 77% of the Moon is Illuminated
Feb 9
Waxing Gibbous
Feb 14
Full
Feb 22
Last Quarter
Mar 1
New
Mar 8
First Quarter

Hourly Weather History & Observations

Time (EST) Temp. Windchill Dew Point Humidity Pressure Visibility Wind Dir Wind Speed Gust Speed Precip Events Conditions
12:15 AM 33.8 °F 29.6 °F 33.8 °F 100% 30.13 in 10.0 mi WNW 4.6 mph - N/A   Overcast
12:35 AM 33.8 °F - 33.8 °F 100% 30.13 in 7.0 mi Calm Calm - N/A   Overcast
12:55 AM 33.8 °F - 33.8 °F 100% 30.12 in 7.0 mi Calm Calm - N/A   Overcast
1:15 AM 33.8 °F - 33.8 °F 100% 30.12 in 7.0 mi Calm Calm - N/A   Overcast
1:35 AM 33.8 °F - 33.8 °F 100% 30.11 in 7.0 mi Calm Calm - N/A   Overcast
1:55 AM 33.8 °F - 33.8 °F 100% 30.11 in 10.0 mi Calm Calm - N/A   Overcast
2:15 AM 33.8 °F - 33.8 °F 100% 30.11 in 10.0 mi Calm Calm - N/A   Overcast
2:35 AM 33.8 °F - 33.8 °F 100% 30.11 in 10.0 mi Calm Calm - N/A   Overcast
2:55 AM 35.6 °F - 33.8 °F 93% 30.10 in 10.0 mi Calm Calm - N/A   Overcast
3:15 AM 33.8 °F - 33.8 °F 100% 30.08 in 10.0 mi Calm Calm - N/A   Overcast
3:35 AM 33.8 °F - 33.8 °F 100% 30.07 in 7.0 mi Calm Calm - N/A   Overcast
3:55 AM 33.8 °F - 33.8 °F 100% 30.07 in 10.0 mi Calm Calm - N/A   Overcast
4:15 AM 33.8 °F - 33.8 °F 100% 30.07 in 10.0 mi Calm Calm - N/A   Overcast
4:35 AM 33.8 °F 30.8 °F 33.8 °F 100% 30.07 in 10.0 mi South 3.5 mph - N/A   Overcast
4:55 AM 35.6 °F - 33.8 °F 93% 30.07 in 10.0 mi Calm Calm - N/A   Overcast
5:15 AM 35.6 °F - 33.8 °F 93% 30.08 in 10.0 mi Calm Calm - N/A   Overcast
5:35 AM 33.8 °F - 33.8 °F 100% 30.09 in 7.0 mi Calm Calm - N/A   Overcast
5:55 AM 33.8 °F - 33.8 °F 100% 30.09 in 7.0 mi Calm Calm - N/A   Overcast
6:15 AM 33.8 °F - 33.8 °F 100% 30.09 in 7.0 mi Calm Calm - N/A   Overcast
6:35 AM 33.8 °F - 33.8 °F 100% 30.09 in 7.0 mi Calm Calm - N/A   Overcast
6:55 AM 35.6 °F 32.8 °F 33.8 °F 93% 30.09 in 10.0 mi West 3.5 mph - N/A   Overcast
7:15 AM 35.6 °F - 33.8 °F 93% 30.08 in 10.0 mi Calm Calm - N/A   Overcast
7:35 AM 35.6 °F - 33.8 °F 93% 30.07 in 10.0 mi Calm Calm - N/A   Overcast
7:55 AM 35.6 °F - 33.8 °F 93% 30.07 in 10.0 mi Calm Calm - N/A   Scattered Clouds
8:15 AM 35.6 °F 32.8 °F 33.8 °F 93% 30.07 in 10.0 mi South 3.5 mph - N/A   Mostly Cloudy
8:35 AM 35.6 °F 32.8 °F 33.8 °F 93% 30.07 in 10.0 mi South 3.5 mph - N/A   Overcast
8:55 AM 35.6 °F 31.7 °F 35.6 °F 100% 30.07 in 10.0 mi SSE 4.6 mph - N/A   Mostly Cloudy
9:15 AM 37.4 °F 34.9 °F 35.6 °F 93% 30.07 in 10.0 mi SSE 3.5 mph - N/A   Mostly Cloudy
9:35 AM 37.4 °F 34.9 °F 35.6 °F 93% 30.07 in 10.0 mi South 3.5 mph - N/A   Mostly Cloudy
9:55 AM 37.4 °F 32.8 °F 35.6 °F 93% 30.08 in 10.0 mi SW 5.8 mph - N/A   Overcast
10:15 AM 37.4 °F 33.8 °F 35.6 °F 93% 30.07 in 10.0 mi SSW 4.6 mph - N/A   Overcast
10:35 AM 39.2 °F 34.2 °F 35.6 °F 87% 30.07 in 10.0 mi SW 6.9 mph - N/A   Overcast
10:55 AM 39.2 °F 33.6 °F 35.6 °F 87% 30.06 in 10.0 mi WSW 8.1 mph - N/A   Overcast
11:15 AM 39.2 °F 35.9 °F 35.6 °F 87% 30.05 in 7.0 mi SW 4.6 mph - N/A   Overcast
11:35 AM 39.2 °F 35.0 °F 35.6 °F 87% 30.04 in 10.0 mi SW 5.8 mph - N/A   Overcast
11:55 AM 39.2 °F 35.9 °F 35.6 °F 87% 30.04 in 10.0 mi West 4.6 mph - N/A   Overcast
12:15 PM 39.2 °F 35.0 °F 35.6 °F 87% 30.03 in 10.0 mi West 5.8 mph - N/A   Overcast
12:35 PM 39.2 °F 33.6 °F 35.6 °F 87% 30.02 in 10.0 mi WSW 8.1 mph 16.1 mph N/A   Overcast
12:55 PM 39.2 °F 35.9 °F 37.4 °F 93% 30.01 in 10.0 mi SW 4.6 mph - N/A   Overcast
1:15 PM 41.0 °F 36.4 °F 35.6 °F 81% 29.98 in 10.0 mi WSW 6.9 mph - N/A   Overcast
1:35 PM 41.0 °F 35.8 °F 37.4 °F 87% 29.98 in 10.0 mi WSW 8.1 mph - N/A   Light Drizzle
1:55 PM 41.0 °F 34.7 °F 35.6 °F 81% 29.97 in 10.0 mi WSW 10.4 mph 17.3 mph N/A   Overcast
2:15 PM 41.0 °F 34.7 °F 35.6 °F 81% 29.97 in 10.0 mi WSW 10.4 mph 20.7 mph N/A   Overcast
2:35 PM 41.0 °F 33.9 °F 35.6 °F 81% 29.97 in 10.0 mi WSW 12.7 mph 20.7 mph N/A   Overcast
2:55 PM 41.0 °F 35.8 °F 35.6 °F 81% 29.96 in 10.0 mi WSW 8.1 mph 20.7 mph N/A   Overcast
3:15 PM 41.0 °F 35.2 °F 35.6 °F 81% 29.96 in 10.0 mi WSW 9.2 mph 19.6 mph N/A   Overcast
3:35 PM 41.0 °F 35.2 °F 35.6 °F 81% 29.96 in 10.0 mi West 9.2 mph 17.3 mph N/A   Overcast
3:55 PM 41.0 °F 35.2 °F 35.6 °F 81% 29.97 in 10.0 mi WSW 9.2 mph 17.3 mph N/A   Overcast
4:15 PM 41.0 °F 35.8 °F 35.6 °F 81% 29.97 in 10.0 mi West 8.1 mph 16.1 mph N/A   Overcast
4:35 PM 41.0 °F 35.2 °F 35.6 °F 81% 29.97 in 7.0 mi WSW 9.2 mph 18.4 mph N/A   Drizzle
4:55 PM 39.2 °F 33.0 °F 35.6 °F 87% 29.96 in 10.0 mi West 9.2 mph - N/A   Light Drizzle
5:15 PM 39.2 °F 33.6 °F 35.6 °F 87% 29.96 in 10.0 mi WSW 8.1 mph 16.1 mph N/A   Overcast
5:35 PM 39.2 °F 33.0 °F 35.6 °F 87% 29.97 in 10.0 mi WSW 9.2 mph 17.3 mph N/A   Overcast
5:55 PM 39.2 °F 34.2 °F 35.6 °F 87% 29.97 in 10.0 mi West 6.9 mph - N/A   Overcast
6:15 PM 39.2 °F 32.5 °F 35.6 °F 87% 29.99 in 10.0 mi WSW 10.4 mph - N/A   Overcast
6:35 PM 39.2 °F 31.2 °F 35.6 °F 87% 30.01 in 10.0 mi NW 13.8 mph 21.9 mph N/A   Drizzle
6:55 PM 37.4 °F 32.8 °F 35.6 °F 93% 30.02 in 10.0 mi WNW 5.8 mph - N/A   Overcast
7:15 PM 37.4 °F 31.4 °F 35.6 °F 93% 30.03 in 10.0 mi West 8.1 mph - N/A   Overcast
7:35 PM 37.4 °F 30.8 °F 33.8 °F 87% 30.04 in 10.0 mi WNW 9.2 mph 17.3 mph N/A   Overcast
7:55 PM 37.4 °F 32.1 °F 33.8 °F 87% 30.05 in 10.0 mi West 6.9 mph 16.1 mph N/A   Overcast
8:15 PM 37.4 °F 29.8 °F 33.8 °F 87% 30.06 in 10.0 mi WNW 11.5 mph 19.6 mph N/A   Overcast
8:35 PM 37.4 °F 32.8 °F 33.8 °F 87% 30.07 in 10.0 mi West 5.8 mph - N/A   Overcast
8:55 PM 37.4 °F 32.1 °F 33.8 °F 87% 30.07 in 10.0 mi West 6.9 mph - N/A   Overcast
9:15 PM 35.6 °F 29.2 °F 32.0 °F 87% 30.07 in 10.0 mi West 8.1 mph 16.1 mph N/A   Overcast
9:35 PM 35.6 °F 28.6 °F 32.0 °F 87% 30.06 in 10.0 mi West 9.2 mph - N/A   Overcast
9:55 PM 35.6 °F 27.5 °F 32.0 °F 87% 30.06 in 10.0 mi WNW 11.5 mph - N/A   Overcast
10:15 PM 35.6 °F 29.9 °F 30.2 °F 81% 30.04 in 10.0 mi WNW 6.9 mph - N/A   Overcast
10:35 PM 33.8 °F 28.6 °F 30.2 °F 87% 30.05 in 10.0 mi West 5.8 mph - N/A   Overcast
10:55 PM 33.8 °F 27.0 °F 30.2 °F 87% 30.05 in 10.0 mi WNW 8.1 mph - N/A   Overcast
11:15 PM 33.8 °F 27.7 °F 30.2 °F 87% 30.04 in 10.0 mi WNW 6.9 mph - N/A   Overcast
11:35 PM 33.8 °F 25.8 °F 30.2 °F 87% 30.04 in 10.0 mi WNW 10.4 mph - N/A   Mostly Cloudy
11:55 PM 33.8 °F 26.4 °F 28.4 °F 81% 30.03 in 10.0 mi West 9.2 mph 16.1 mph N/A   Scattered Clouds